User: anonymous   Login
Location: Fort Wayne
(41.1310°N, 85.1290°W)
Time: 10:30:29
(UTC-05:00)
Language:

Iridium 37 - Orbit

View from above orbital plane
View from above orbital plane
View from above satellite
View from above satellite

Ground track
Ground track

The orbit data is extracted from the following two-line orbital elements,

1 24968U 97056D   15029.37546461  .00000622  00000-0  21505-3 0  1302
2 24968 086.4002 322.4339 0002186 098.1656 261.9788 14.34217801907861
Epoch (UTC): 29 January 2015 09:00:40
Eccentricity: 0.0002186
inclination: 86.4002°
perigee height: 776 km
apogee height: 779 km
right ascension of ascending node: 322.4339°
argument of perigee: 98.1656°
revolutions per day: 14.34217801
mean anomaly at epoch: 261.9788°
orbit number at epoch: 90786

The dashed part of the orbit path shows where the satellite is in the earth's shadow,  

DLR